Probability
26 29 39 35 39 32 29 26 23 26 23 23 29 23 23 19 19 19 13 6 10 10 10 10 6 3 0 0 0 0 0 0 0 3 3 3 0 0 0 3 3 3 6
26 32 39 39 39 35 29 29 32 29 26 23 19 23 19 19 19 19 16 16 13 10 10 10 6 6 3 3 3 0 0 0 3 3 3 3 0 0 0 0 0 3 6
32 32 39 35 39 35 32 35 29 23 26 26 19 23 16 16 16 16 16 13 13 13 13 10 6 10 10 6 0 0 3 3 3 3 3 3 3 3 3 3 3 0 3
35 35 35 32 29 29 32 32 32 32 29 26 26 19 16 16 16 16 16 13 16 16 13 10 10 10 6 6 3 3 3 3 3 3 3 3 3 3 3 0 0 0 0
32 32 35 32 29 35 29 29 32 39 26 23 23 16 16 16 16 16 16 13 19 19 19 10 10 10 6 6 6 6 6 6 6 6 3 3 3 3 3 3 0 0 0
35 32 32 32 39 39 32 29 32 29 29 32 23 19 16 16 16 16 16 13 13 19 19 13 13 6 6 6 6 6 6 6 6 6 3 3 3 3 0 0 0 0 0
32 29 32 35 39 42 42 29 32 26 35 29 29 19 19 16 16 16 19 16 13 13 13 16 10 6 6 6 6 6 6 6 6 6 3 3 3 3 3 0 0 0 0
26 32 29 35 35 42 35 32 35 32 26 29 29 26 19 19 23 13 13 13 13 13 13 16 13 6 6 6 6 6 6 6 10 10 10 10 10 3 3 3 3 3 3
16 23 29 32 39 39 35 35 32 26 26 26 26 19 29 23 19 16 13 16 16 16 16 16 16 10 10 6 6 6 6 6 10 10 6 6 6 6 6 3 3 3 3
19 23 32 29 35 42 35 29 32 23 26 23 19 23 16 16 19 16 13 13 13 13 13 13 16 13 6 10 6 6 10 10 10 6 6 6 6 6 6 6 6 3 3
19 23 35 35 29 32 29 29 32 26 16 19 16 10 13 13 16 16 16 13 13 13 10 13 13 13 13 10 6 6 6 6 6 6 6 6 6 6 3 3 3 0 0
19 19 23 23 19 19 26 39 32 26 16 13 10 10 16 13 13 13 16 13 13 13 13 13 10 10 10 10 6 6 6 3 3 0 0 0 0 0 0 0 0 0 0
16 23 26 19 16 13 23 32 29 26 19 23 10 10 10 10 10 10 13 10 13 13 16 16 16 13 10 3 0 0 0 0 0 0 0 0 0 0 0 0 0 0 0
23 23 19 16 13 16 19 32 29 32 26 19 16 13 10 10 10 13 13 13 13 13 19 16 16 13 10 10 3 6 0 0 0 0 0 0 0 0 0 0 0 0 0
19 23 19 16 13 13 16 23 23 32 23 19 16 16 13 10 10 10 10 10 10 13 13 16 13 10 10 10 3 3 3 3 0 0 0 0 0 0 0 0 0 0 0
23 23 16 13 16 13 16 13 19 29 26 23 16 13 13 10 10 10 10 10 10 10 10 6 10 6 10 10 0 3 6 3 0 0 0 0 0 0 0 0 0 0 0
23 23 19 19 13 13 16 16 16 10 13 13 13 13 13 10 10 10 10 10 10 10 6 6 6 6 6 6 0 0 3 3 0 0 0 0 0 0 0 0 0 0 0
23 19 16 16 16 16 13 13 16 10 10 13 10 10 13 13 10 10 10 10 10 6 6 6 6 6 6 6 0 0 0 0 0 0 0 0 0 0 0 0 0 0 0
16 10 10 10 6 13 13 13 10 10 10 10 10 10 13 13 10 10 10 10 3 3 6 6 6 6 6 3 0 0 0 0 0 0 0 3 3 0 0 0 0 0 0
10 13 10 3 6 10 13 10 10 10 10 10 6 10 10 10 6 10 10 3 3 3 3 6 6 6 6 6 0 0 3 3 3 0 0 0 0 3 0 0 0 0 0
6 6 3 3 6 6 6 3 6 10 10 10 6 10 6 6 3 3 6 3 3 3 3 3 6 6 6 6 0 0 3 3 3 3 3 0 0 0 0 0 0 0 0
6 3 10 6 6 6 3 3 6 6 10 6 6 6 6 6 3 3 0 3 3 3 3 3 6 6 6 6 3 0 0 3 3 3 3 3 0 0 0 0 0 0 0
3 10 10 6 6 6 3 3 3 6 6 6 6 6 6 6 3 0 0 3 3 6 6 6 6 6 6 3 3 0 0 0 0 3 3 3 0 0 0 0 0 0 0
6 10 10 6 6 6 3 3 3 10 10 6 6 6 6 6 0 0 0 3 3 3 6 6 6 6 6 3 3 3 0 0 0 0 0 0 0 0 0 0 0 0 0
6 10 6 6 6 3 3 3 6 10 6 6 6 6 3 3 0 0 0 3 3 3 3 3 6 6 6 3 0 3 3 3 0 0 0 0 0 0 0 0 0 0 0
10 6 6 3 3 6 3 0 3 10 10 6 6 3 3 3 0 0 0 0 3 3 0 3 0 0 0 0 0 0 0 0 0 0 0 0 3 3 3 0 0 0 0
Height
5859 5859 5859 5859 5858 5858 5857 5857 5856 5856 5856 5856 5856 5856 5856 5855 5855 5855 5855 5855 5854 5854 5853 5853 5852 5852 5852 5851 5851 5850 5850 5850 5850 5850 5850 5850 5850 5850 5850 5850 5850 5850 5849
5855 5855 5855 5855 5855 5854 5853 5853 5853 5853 5853 5852 5853 5853 5852 5852 5852 5852 5852 5852 5852 5851 5851 5850 5850 5850 5849 5849 5848 5848 5847 5847 5846 5846 5846 5847 5847 5847 5846 5846 5846 5846 5846
5851 5851 5851 5851 5851 5850 5849 5849 5848 5848 5848 5848 5849 5849 5849 5849 5849 5849 5849 5849 5849 5848 5848 5848 5847 5847 5846 5846 5846 5845 5844 5844 5843 5843 5843 5843 5843 5843 5843 5842 5842 5842 5841
5846 5846 5846 5846 5846 5845 5845 5845 5844 5844 5844 5844 5845 5845 5845 5846 5846 5846 5846 5846 5845 5845 5845 5844 5844 5844 5843 5843 5842 5841 5841 5840 5840 5839 5839 5839 5839 5839 5839 5839 5838 5838 5837
5841 5841 5841 5841 5841 5841 5841 5841 5841 5841 5840 5840 5840 5841 5842 5842 5842 5842 5842 5842 5841 5841 5841 5841 5840 5840 5840 5839 5839 5838 5837 5836 5836 5835 5835 5835 5835 5835 5835 5834 5834 5834 5833
5836 5836 5836 5836 5836 5836 5836 5836 5836 5836 5836 5837 5837 5837 5838 5838 5838 5838 5838 5838 5837 5837 5837 5837 5836 5836 5836 5836 5835 5834 5833 5832 5832 5831 5830 5830 5830 5830 5830 5830 5830 5829 5829
5831 5831 5831 5831 5831 5831 5831 5831 5831 5831 5832 5832 5833 5833 5834 5834 5834 5833 5833 5833 5833 5833 5833 5832 5832 5832 5831 5831 5830 5830 5829 5828 5827 5827 5826 5826 5826 5825 5825 5825 5825 5824 5824
5825 5826 5826 5826 5826 5826 5826 5826 5826 5827 5827 5827 5828 5829 5829 5829 5829 5829 5828 5828 5828 5828 5828 5828 5827 5827 5826 5826 5825 5825 5824 5824 5823 5823 5822 5822 5821 5821 5820 5820 5820 5819 5818
5819 5820 5820 5820 5821 5821 5822 5822 5822 5822 5823 5823 5823 5823 5824 5824 5824 5824 5823 5823 5823 5823 5823 5822 5822 5821 5821 5821 5820 5820 5820 5819 5818 5818 5817 5817 5817 5816 5815 5815 5814 5814 5813
5814 5815 5815 5815 5815 5816 5816 5817 5818 5818 5818 5817 5817 5817 5818 5818 5818 5818 5818 5818 5818 5817 5817 5817 5817 5816 5815 5815 5815 5815 5815 5814 5813 5813 5812 5812 5811 5810 5810 5809 5808 5807 5807
5808 5809 5809 5810 5810 5811 5811 5812 5812 5812 5812 5812 5812 5812 5812 5812 5812 5812 5812 5812 5812 5812 5812 5812 5811 5811 5810 5810 5809 5809 5809 5808 5808 5807 5807 5806 5806 5804 5804 5803 5802 5801 5801
5803 5803 5804 5804 5804 5805 5806 5806 5806 5806 5806 5806 5806 5806 5806 5806 5806 5806 5807 5807 5807 5807 5806 5806 5806 5805 5805 5804 5804 5803 5803 5802 5802 5801 5801 5800 5800 5799 5798 5797 5796 5796 5795
5798 5798 5798 5798 5799 5799 5800 5800 5800 5800 5800 5800 5800 5800 5800 5800 5800 5800 5800 5800 5800 5800 5800 5800 5800 5800 5799 5798 5798 5797 5797 5796 5796 5795 5795 5794 5793 5792 5792 5791 5791 5790 5789
5793 5793 5793 5793 5793 5793 5794 5794 5794 5794 5794 5794 5793 5794 5794 5794 5794 5794 5794 5793 5793 5793 5793 5793 5793 5794 5793 5792 5792 5791 5791 5790 5789 5789 5788 5788 5787 5787 5786 5785 5785 5784 5783
5786 5787 5787 5787 5787 5787 5787 5788 5788 5788 5788 5787 5787 5788 5788 5788 5788 5787 5787 5787 5787 5787 5787 5787 5787 5787 5787 5786 5786 5785 5785 5784 5784 5783 5782 5781 5781 5780 5780 5779 5779 5778 5777
5780 5781 5781 5782 5782 5782 5781 5781 5781 5781 5781 5781 5781 5781 5781 5781 5780 5780 5780 5779 5779 5780 5779 5779 5779 5780 5780 5780 5779 5778 5778 5778 5777 5777 5776 5775 5774 5774 5773 5773 5772 5772 5771
5772 5773 5774 5775 5775 5775 5775 5775 5775 5774 5774 5774 5774 5774 5774 5773 5773 5773 5772 5772 5772 5772 5772 5773 5773 5773 5773 5773 5772 5772 5771 5771 5771 5770 5769 5768 5768 5767 5767 5766 5766 5765 5764
5765 5766 5766 5767 5768 5768 5768 5768 5768 5768 5768 5767 5767 5767 5766 5766 5766 5765 5765 5764 5765 5765 5765 5765 5766 5766 5766 5766 5765 5765 5764 5764 5764 5763 5763 5762 5761 5760 5760 5760 5759 5758 5758
5757 5758 5759 5760 5760 5761 5760 5760 5761 5760 5761 5760 5760 5760 5759 5759 5758 5758 5758 5757 5758 5758 5758 5758 5758 5758 5758 5758 5758 5758 5757 5757 5757 5757 5756 5755 5755 5754 5753 5753 5752 5752 5751
5750 5751 5751 5752 5753 5753 5753 5753 5753 5753 5753 5753 5753 5753 5752 5752 5751 5751 5750 5750 5750 5750 5751 5751 5751 5751 5751 5751 5750 5750 5750 5750 5750 5750 5749 5749 5748 5748 5747 5747 5747 5746 5745
5741 5742 5743 5744 5745 5746 5746 5746 5745 5746 5746 5746 5746 5746 5745 5745 5744 5744 5743 5743 5743 5743 5744 5744 5744 5744 5744 5744 5743 5743 5743 5743 5743 5743 5742 5742 5742 5741 5741 5741 5740 5740 5739
5734 5735 5736 5737 5737 5737 5737 5737 5737 5738 5738 5738 5738 5738 5737 5737 5737 5737 5736 5736 5736 5736 5737 5737 5737 5736 5736 5736 5736 5736 5736 5736 5736 5736 5736 5736 5736 5735 5735 5735 5734 5734 5733
5726 5727 5728 5728 5729 5729 5729 5729 5729 5730 5730 5730 5730 5730 5730 5730 5730 5730 5730 5730 5730 5729 5730 5730 5730 5730 5729 5729 5729 5729 5729 5730 5730 5730 5730 5729 5729 5729 5729 5728 5728 5727 5727
5717 5718 5719 5719 5720 5720 5721 5721 5721 5721 5722 5722 5722 5722 5722 5722 5722 5722 5723 5723 5723 5723 5723 5724 5723 5723 5723 5723 5723 5723 5723 5723 5723 5723 5723 5723 5723 5723 5722 5722 5722 5721 5720
5708 5709 5710 5711 5712 5712 5712 5713 5713 5713 5713 5714 5714 5715 5715 5715 5715 5715 5715 5716 5716 5717 5717 5717 5717 5717 5717 5717 5717 5717 5717 5717 5717 5717 5717 5716 5716 5716 5716 5716 5715 5715 5714
5700 5701 5702 5703 5704 5705 5705 5705 5706 5706 5706 5706 5707 5707 5707 5707 5708 5708 5709 5709 5709 5710 5710 5710 5710 5710 5710 5710 5711 5711 5711 5711 5711 5710 5710 5710 5710 5710 5709 5709 5709 5708 5708
Wind_Speed
15 15 15 15 15 15 15 15 15 14 13 13 12 11 11 10 10 10 10 11 11 11 10 8 8 7 8 8 8 8 9 9 10 10 10 11 11 11 11 11 11 11 10
16 16 15 15 15 16 17 17 16 15 14 13 13 13 11 10 10 10 11 11 11 11 11 9 8 8 9 9 10 10 10 10 11 11 11 11 11 11 12 13 13 13 13
16 16 16 15 16 17 18 17 17 17 15 14 14 13 12 11 11 11 11 11 11 11 11 10 10 10 10 10 10 11 11 11 12 12 13 13 13 13 13 14 15 15 15
17 16 16 17 17 18 18 17 16 16 15 15 14 14 14 13 13 12 12 12 12 12 11 11 11 12 12 11 11 11 11 11 11 11 12 13 13 13 13 14 15 15 15
16 16 17 18 18 18 18 17 17 16 16 16 15 14 14 14 13 13 13 12 12 12 12 12 12 13 13 12 12 12 12 11 11 12 12 13 14 14 14 14 15 14 15
16 17 17 19 18 18 18 18 18 17 17 16 16 15 15 14 14 14 14 14 13 13 13 14 14 14 14 14 14 13 13 13 13 13 13 14 14 13 13 13 14 15 16
16 16 17 18 18 18 18 18 18 17 17 17 16 16 16 15 15 15 15 15 15 15 15 15 15 16 16 15 15 14 14 14 14 13 13 14 14 14 14 14 15 15 16
17 18 18 18 19 19 19 18 18 17 17 17 17 17 17 17 16 16 16 16 16 16 16 16 17 17 16 16 15 15 15 16 15 15 14 14 15 15 15 15 15 16 17
17 18 19 19 19 19 18 18 18 18 18 18 18 18 18 18 18 17 17 17 17 17 17 17 18 18 18 17 16 16 16 17 16 16 16 16 16 16 16 16 16 17 17
17 17 18 19 19 19 19 18 19 19 19 19 19 19 19 19 19 18 17 17 18 18 18 18 18 18 19 18 18 18 18 17 17 18 18 17 17 18 18 18 18 17 17
18 18 18 19 20 20 20 20 20 20 21 21 20 20 20 20 19 18 18 18 19 20 19 19 19 19 19 19 19 19 19 19 19 19 19 19 18 19 19 19 19 19 19
20 20 20 20 20 20 20 20 20 20 21 21 20 21 21 21 20 19 20 20 20 20 20 20 20 20 20 20 19 19 20 19 19 19 19 20 20 20 20 20 19 19 19
20 21 21 20 20 20 20 19 19 20 20 22 22 21 21 20 21 21 21 22 22 22 22 21 21 21 20 20 19 20 20 19 20 20 20 20 20 20 20 20 20 20 20
22 21 21 21 21 20 21 21 20 21 21 21 21 21 21 21 21 22 22 23 23 22 22 21 21 21 20 20 20 20 20 20 21 21 21 20 20 20 20 20 21 21 20
23 22 22 22 21 22 22 22 22 22 21 21 21 21 22 22 22 23 23 23 23 22 22 21 21 21 20 20 20 20 20 21 22 21 21 21 21 21 21 21 21 21 21
24 23 23 23 23 23 22 22 23 22 22 22 22 23 23 23 23 23 24 23 22 23 23 22 21 21 21 21 21 21 21 22 22 21 21 22 22 22 22 22 22 21 21
25 24 24 24 24 23 23 23 24 24 24 24 24 24 24 24 24 23 24 25 24 23 23 22 22 22 21 21 21 22 22 22 22 21 21 21 22 22 23 23 22 21 21
27 26 24 24 24 24 24 24 24 24 24 24 25 25 25 24 24 24 25 25 24 24 24 23 22 22 22 22 22 22 22 22 22 21 21 21 21 21 22 22 21 21 20
27 26 26 26 26 26 26 24 24 25 25 24 24 24 24 24 24 24 24 23 24 24 23 24 23 22 22 22 23 23 22 21 21 21 21 21 20 21 20 21 21 21 21
29 28 27 27 26 26 26 25 25 25 25 24 23 24 24 24 23 23 23 23 23 23 23 23 23 22 22 22 22 22 22 22 22 21 21 21 20 19 19 19 20 21 21
29 28 28 28 27 27 26 26 25 25 25 24 24 25 25 24 24 23 22 22 21 22 22 22 22 22 22 21 22 22 22 23 22 21 21 20 20 20 20 20 20 20 21
29 29 28 27 27 27 27 27 26 25 25 25 25 25 25 25 24 23 23 22 22 22 21 21 21 21 21 21 21 22 22 22 22 22 22 21 20 21 21 20 20 21 21
29 29 28 28 27 27 27 26 25 25 26 25 25 25 25 24 23 23 23 22 22 22 21 20 20 21 21 21 21 21 21 21 21 21 21 20 20 20 20 20 20 21 21
28 28 28 28 28 28 28 27 26 26 25 25 25 25 24 23 23 23 23 22 22 22 21 21 21 21 21 20 20 20 20 20 20 20 20 20 20 20 21 21 20 21 21
28 27 27 26 27 27 26 26 26 25 24 24 24 24 24 23 22 22 22 22 22 22 22 22 21 21 21 20 20 19 20 20 20 20 20 20 21 21 22 21 21 21 21
25 26 26 25 25 25 24 24 25 24 23 23 23 23 23 23 23 23 23 23 23 23 23 22 21 21 21 20 20 20 20 21 22 21 21 21 21 21 21 21 21 21 21
Wind_Direction
273 271 274 274 277 278 277 282 280 280 276 275 277 277 281 282 280 283 289 296 303 302 298 293 292 295 292 287 287 285 281 276 272 268 265 262 260 262 263 266 268 269 270
273 271 274 274 275 277 277 276 275 276 270 270 270 271 274 280 277 279 284 290 296 296 292 283 289 293 292 288 285 283 281 277 275 272 268 261 260 260 262 262 265 268 270
279 275 274 274 275 276 278 277 274 274 267 267 266 265 267 274 275 277 283 286 288 289 288 280 284 288 288 285 284 284 283 281 277 270 264 264 263 263 263 264 266 268 270
277 273 273 272 275 275 277 277 277 274 270 269 265 262 264 269 271 273 279 280 281 283 282 280 281 283 286 285 283 282 280 279 278 273 269 267 265 266 267 268 269 271 270
274 273 273 273 272 272 275 275 275 273 270 270 263 262 263 268 267 269 275 277 277 276 275 276 277 281 283 283 283 283 279 276 276 274 271 265 265 267 267 268 268 270 271
273 275 275 272 269 270 271 269 268 269 267 264 262 260 262 266 268 267 271 275 272 272 274 274 275 278 279 281 282 281 279 277 275 273 270 268 265 267 269 270 270 272 275
273 275 274 272 271 270 267 263 263 265 262 262 262 262 263 265 268 269 271 273 273 273 274 273 274 276 276 279 278 277 276 277 276 272 269 269 267 268 271 272 272 273 274
268 269 270 272 272 272 268 265 265 263 262 263 263 263 262 264 268 270 272 273 273 273 272 274 274 274 275 277 276 274 275 276 276 273 270 269 271 271 273 274 274 276 275
267 269 270 271 272 270 268 268 268 266 264 265 264 263 263 264 268 270 272 273 272 272 273 274 276 274 272 273 275 274 273 274 272 271 270 270 271 272 273 275 277 278 277
270 272 272 270 269 269 269 268 268 268 266 265 264 265 267 267 268 269 271 272 271 273 274 275 276 275 275 275 275 273 270 272 272 271 269 269 271 274 274 276 279 279 279
265 267 267 268 267 269 269 268 268 266 265 265 265 265 267 269 267 268 270 271 270 270 272 274 275 275 275 275 274 271 271 272 272 273 271 270 273 276 276 278 279 280 281
265 265 265 266 267 266 265 266 266 266 266 266 264 264 267 269 267 268 269 269 267 267 269 270 270 271 271 272 272 271 271 272 273 274 272 271 275 276 279 277 278 280 281
268 267 265 264 265 263 263 267 267 265 265 265 262 264 268 269 269 270 270 268 268 268 268 267 266 268 269 270 271 271 271 271 272 272 273 273 276 277 278 278 279 280 281
267 270 268 263 265 265 265 266 268 265 265 265 264 266 268 270 270 271 272 271 268 267 266 266 265 266 267 270 271 270 271 271 272 272 273 275 274 275 276 277 279 279 280
265 269 268 268 269 269 269 267 268 267 265 265 268 269 269 271 271 271 271 271 268 266 266 266 264 264 267 269 269 270 269 271 273 273 273 273 273 273 274 275 278 278 279
264 266 267 266 268 268 269 269 271 269 266 268 269 270 270 271 272 272 269 269 267 264 264 263 264 264 266 268 268 269 270 271 271 271 273 272 273 272 272 274 275 277 279
264 265 265 265 265 267 270 269 271 272 270 270 271 271 272 273 272 271 269 267 267 264 262 263 265 266 267 266 267 267 268 269 269 270 273 274 272 272 272 271 273 277 279
264 265 265 266 267 268 268 268 270 271 272 271 270 271 271 272 271 272 270 268 266 266 264 263 265 266 265 266 266 266 267 270 270 271 273 274 275 275 272 271 272 275 279
264 265 264 266 270 271 272 271 270 271 272 271 270 270 271 273 274 273 270 267 265 266 267 263 264 264 264 265 265 264 265 267 269 271 271 273 275 274 273 271 272 274 278
262 262 263 267 271 272 271 270 270 269 268 268 269 269 270 274 275 274 271 267 265 264 264 264 262 260 262 264 265 265 266 268 269 271 271 271 272 272 273 274 273 273 276
262 262 265 267 270 270 270 269 266 265 265 267 269 268 270 271 273 273 271 268 267 266 264 264 263 261 262 264 266 266 267 269 270 270 270 270 270 270 271 274 275 277 277
262 263 265 265 267 268 269 267 265 264 265 266 268 268 270 269 271 271 271 271 268 267 265 262 262 263 262 262 264 266 267 268 268 268 267 268 269 270 271 272 274 276 277
262 262 263 264 263 265 266 268 267 265 264 266 268 269 269 269 269 269 270 268 269 268 262 261 260 262 264 264 264 265 266 266 266 266 266 264 265 268 271 272 273 275 276
259 259 261 263 264 266 268 267 264 263 264 265 266 266 268 269 268 267 266 265 267 268 263 261 262 263 264 265 264 263 264 265 265 265 266 265 265 267 269 272 273 275 276
257 260 264 264 264 267 269 265 263 261 263 263 263 265 266 266 266 265 265 265 263 263 263 262 264 264 264 264 264 265 265 264 265 265 265 265 266 267 268 270 272 273 274
257 259 260 261 263 265 267 266 264 262 264 263 263 264 264 264 264 264 264 262 260 261 261 262 263 264 264 264 265 268 270 268 266 266 265 265 265 265 267 269 270 272 273